Location: Newark
(50.4348°N, 30.5552°E)
Time: 05:18:38
(UTC+00:00)

Envisat - Pass Details

Date: 13 December 2019
Orbit: 764 x 766 km, 98.1° (Epoch: 20 January)

Event Time Altitude Azimuth Distance (km) Brightness Sun altitude
Rises 17:26:30 0° 220° (SW) 3,225 6.7 -32.5°
Reaches altitude 10° 17:30:08 10° 247° (WSW) 2,305 6.2 -33.1°
Maximum altitude 17:32:29 13° 275° (W) 2,096 6.0 -33.5°
Drops below altitude 10° 17:34:50 10° 303° (WNW) 2,313 6.1 -33.9°
Sets 17:38:31 0° 330° (NNW) 3,246 6.7 -34.5°
